| time (UTC) | temp C | wind direction | speed KPH | gust KPH | rain 1hr cm | rain 24hr cm | rain mn cm | humidity % | barometer mb |
| 20260504214002 | 20 | 188 | 16.1 | 30.6 | 0.00 | 0.00 | 0.00 | 23 | 1006.7 |
| 20260504213502 | 20 | 262 | 12.9 | 25.7 | 0.00 | 0.00 | 0.00 | 24 | 1006.8 |
| 20260504213109 | 20 | 255 | 12.9 | 20.9 | 0.00 | 0.00 | 0.00 | 23 | 1006.7 |
| 20260504212559 | 20 | 280 | 6.4 | 20.9 | 0.00 | 0.00 | 0.00 | 23 | 1006.8 |
| 20260504212058 | 20 | 252 | 11.3 | 27.4 | 0.00 | 0.00 | 0.00 | 24 | 1006.7 |
| 20260504211651 | 20 | 159 | 14.5 | 27.4 | 0.00 | 0.00 | 0.00 | 23 | 1006.8 |
| 20260504211056 | 20 | 229 | 8.0 | 19.3 | 0.00 | 0.00 | 0.00 | 24 | 1006.8 |
| 20260504210556 | 20 | 264 | 3.2 | 20.9 | 0.00 | 0.00 | 0.00 | 26 | 1006.8 |
| 20260504210055 | 20 | 248 | 14.5 | 20.9 | 0.00 | 0.00 | 0.00 | 23 | 1006.7 |
| 20260504205556 | 20 | 251 | 6.4 | 20.9 | 0.00 | 0.00 | 0.00 | 25 | 1006.9 |
| 20260504205053 | 20 | 251 | 12.9 | 24.1 | 0.00 | 0.00 | 0.00 | 23 | 1006.8 |
| 20260504204553 | 20 | 238 | 12.9 | 22.5 | 0.00 | 0.00 | 0.00 | 24 | 1006.7 |
| 20260504204053 | 20 | 257 | 4.8 | 24.1 | 0.00 | 0.00 | 0.00 | 25 | 1006.7 |
| 20260504203552 | 20 | 241 | 14.5 | 33.8 | 0.00 | 0.00 | 0.00 | 24 | 1007.0 |
| 20260504203050 | 20 | 212 | 17.7 | 33.8 | 0.00 | 0.00 | 0.00 | 23 | 1006.8 |
| 20260504202550 | 20 | 221 | 12.9 | 29.0 | 0.00 | 0.00 | 0.00 | 22 | 1006.9 |
| 20260504202150 | 21 | 226 | 14.5 | 29.0 | 0.00 | 0.00 | 0.00 | 24 | 1006.9 |
| 20260504201550 | 20 | 258 | 8.0 | 19.3 | 0.00 | 0.00 | 0.00 | 24 | 1006.9 |
| 20260504201047 | 20 | 238 | 6.4 | 20.9 | 0.00 | 0.00 | 0.00 | 27 | 1006.9 |
| 20260504200546 | 20 | 258 | 12.9 | 20.9 | 0.00 | 0.00 | 0.00 | 23 | 1006.9 |
| 20260504200046 | 20 | 209 | 8.0 | 16.1 | 0.00 | 0.00 | 0.00 | 23 | 1006.9 |
| 20260504195544 | 20 | 227 | 6.4 | 14.5 | 0.00 | 0.00 | 0.00 | 24 | 1007.0 |
| 20260504195044 | 20 | 272 | 6.4 | 19.3 | 0.00 | 0.00 | 0.00 | 24 | 1006.9 |
| 20260504194550 | 20 | 262 | 9.7 | 19.3 | 0.00 | 0.00 | 0.00 | 22 | 1006.9 |
| 20260504194043 | 20 | 47 | 6.4 | 20.9 | 0.00 | 0.00 | 0.00 | 24 | 1007.0 |
| 20260504193542 | 20 | 212 | 6.4 | 30.6 | 0.00 | 0.00 | 0.00 | 24 | 1007.0 |
| 20260504193042 | 20 | 219 | 16.1 | 38.6 | 0.00 | 0.00 | 0.00 | 23 | 1006.9 |
| 20260504192541 | 20 | 255 | 16.1 | 32.2 | 0.00 | 0.00 | 0.00 | 21 | 1006.9 |
| 20260504192141 | 21 | 251 | 11.3 | 25.7 | 0.00 | 0.00 | 0.00 | 21 | 1007.1 |
| 20260504191545 | 21 | 266 | 9.7 | 30.6 | 0.00 | 0.00 | 0.00 | 23 | 1007.0 |
| 20260504191037 | 20 | 275 | 9.7 | 30.6 | 0.00 | 0.00 | 0.00 | 23 | 1006.9 |
| 20260504190536 | 20 | 216 | 11.3 | 27.4 | 0.00 | 0.00 | 0.00 | 24 | 1006.9 |
| 20260504190043 | 20 | 217 | 11.3 | 40.2 | 0.00 | 0.00 | 0.00 | 24 | 1007.0 |
| 20260504185634 | 20 | 228 | 20.9 | 40.2 | 0.00 | 0.00 | 0.00 | 21 | 1006.9 |
| 20260504185033 | 20 | 216 | 16.1 | 33.8 | 0.00 | 0.00 | 0.00 | 20 | 1007.0 |
| 20260504184544 | 20 | 247 | 12.9 | 29.0 | 0.00 | 0.00 | 0.00 | 21 | 1007.1 |
| 20260504184031 | 20 | 250 | 16.1 | 25.7 | 0.00 | 0.00 | 0.00 | 21 | 1007.2 |
| 20260504183531 | 20 | 264 | 6.4 | 32.2 | 0.00 | 0.00 | 0.00 | 24 | 1007.3 |
| 20260504183029 | 20 | 237 | 14.5 | 32.2 | 0.00 | 0.00 | 0.00 | 23 | 1007.3 |
| 20260504182528 | 20 | 217 | 17.7 | 30.6 | 0.00 | 0.00 | 0.00 | 20 | 1007.4 |
| 20260504182027 | 20 | 241 | 14.5 | 32.2 | 0.00 | 0.00 | 0.00 | 22 | 1007.7 |
| 20260504181525 | 20 | 248 | 16.1 | 37.0 | 0.00 | 0.00 | 0.00 | 22 | 1007.8 |
| 20260504181024 | 20 | 231 | 12.9 | 40.2 | 0.00 | 0.00 | 0.00 | 22 | 1007.7 |
| 20260504180523 | 19 | 184 | 16.1 | 40.2 | 0.00 | 0.00 | 0.00 | 21 | 1007.8 |
| 20260504180024 | 20 | 260 | 12.9 | 27.4 | 0.00 | 0.00 | 0.00 | 20 | 1007.8 |
| 20260504175520 | 19 | 262 | 14.5 | 32.2 | 0.00 | 0.00 | 0.00 | 21 | 1007.8 |
| 20260504175023 | 19 | 301 | 16.1 | 32.2 | 0.00 | 0.00 | 0.00 | 22 | 1007.8 |
| 20260504174518 | 19 | 187 | 14.5 | 30.6 | 0.00 | 0.00 | 0.00 | 23 | 1007.8 |
| 20260504174017 | 19 | 268 | 16.1 | 35.4 | 0.00 | 0.00 | 0.00 | 21 | 1007.8 |
| 20260504173516 | 19 | 223 | 11.3 | 35.4 | 0.00 | 0.00 | 0.00 | 25 | 1007.8 |
| 20260504173015 | 18 | 204 | 22.5 | 35.4 | 0.00 | 0.00 | 0.00 | 22 | 1007.8 |
| 20260504172514 | 18 | 213 | 17.7 | 35.4 | 0.00 | 0.00 | 0.00 | 22 | 1007.9 |
| 20260504172012 | 18 | 145 | 14.5 | 33.8 | 0.00 | 0.00 | 0.00 | 23 | 1007.9 |
| 20260504171514 | 18 | 224 | 16.1 | 33.8 | 0.00 | 0.00 | 0.00 | 23 | 1007.9 |
| 20260504171010 | 18 | 257 | 17.7 | 40.2 | 0.00 | 0.00 | 0.00 | 23 | 1008.0 |
| 20260504170509 | 18 | 214 | 17.7 | 33.8 | 0.00 | 0.00 | 0.00 | 22 | 1008.0 |
| 20260504151038 | 16 | 245 | 12.9 | 30.6 | 0.00 | 0.00 | 0.00 | 29 | 1009.4 |
| 20260504150538 | 16 | 219 | 16.1 | 27.4 | 0.00 | 0.00 | 0.00 | 30 | 1009.4 |
| 20260504141025 | 15 | 235 | 11.3 | 29.0 | 0.00 | 0.00 | 0.00 | 32 | 1009.6 |
| 20260504140525 | 15 | 244 | 11.3 | 20.9 | 0.00 | 0.00 | 0.00 | 33 | 1009.7 |
| 20260504130508 | 13 | 238 | 11.3 | 24.1 | 0.00 | 0.00 | 0.00 | 37 | 1010.3 |
| 20260504120147 | 9 | 252 | 8.0 | 19.3 | 0.00 | 0.00 | 0.00 | 43 | 1010.9 |
| 20260504110531 | 8 | 246 | 4.8 | 11.3 | 0.00 | 0.00 | 0.00 | 46 | 1010.7 |
| 20260504100515 | 6 | 200 | 1.6 | 11.3 | 0.00 | 0.00 | 0.00 | 49 | 1011.2 |
| 20260504081556 | 5 | 230 | 0.0 | 1.6 | 0.00 | 0.00 | 0.00 | 57 | 1011.0 |
| 20260504081056 | 5 | 229 | 0.0 | 1.6 | 0.00 | 0.00 | 0.00 | 57 | 1010.9 |
| 20260504080554 | 5 | 228 | 0.0 | 0.0 | 0.00 | 0.00 | 0.00 | 58 | 1010.9 |
| 20260504070145 | 5 | 204 | 0.0 | 0.0 | 0.00 | 0.00 | 0.00 | 58 | 1010.4 |
| 20260504050522 | 3 | 298 | 0.0 | 0.0 | 0.00 | 0.00 | 0.00 | 55 | 1010.8 |
| 20260504045519 | 3 | 298 | 0.0 | 3.2 | 0.00 | 0.00 | 0.00 | 51 | 1010.8 |
| 20260504045016 | 3 | 298 | 0.0 | 3.2 | 0.00 | 0.00 | 0.00 | 53 | 1010.8 |
| 20260504044517 | 3 | 293 | 1.6 | 1.6 | 0.00 | 0.00 | 0.00 | 55 | 1011.0 |
| 20260504044014 | 2 | 293 | 0.0 | 1.6 | 0.00 | 0.00 | 0.00 | 58 | 1011.0 |
| 20260504043513 | 2 | 293 | 0.0 | 0.0 | 0.00 | 0.00 | 0.00 | 58 | 1011.0 |
| 20260504043015 | 2 | 293 | 0.0 | 3.2 | 0.00 | 0.00 | 0.00 | 58 | 1010.9 |
| 20260504042510 | 2 | 293 | 1.6 | 3.2 | 0.00 | 0.00 | 0.00 | 57 | 1010.8 |
| 20260504042008 | 2 | 228 | 0.0 | 1.6 | 0.00 | 0.00 | 0.00 | 58 | 1010.9 |
| 20260504041506 | 2 | 301 | 0.0 | 0.0 | 0.00 | 0.00 | 0.00 | 56 | 1010.7 |
| 20260504041005 | 2 | 301 | 0.0 | 1.6 | 0.00 | 0.00 | 0.00 | 54 | 1010.7 |
| 20260504040503 | 2 | 301 | 1.6 | 3.2 | 0.00 | 0.00 | 0.00 | 54 | 1010.7 |
| 20260504040137 | 2 | 301 | 1.6 | 3.2 | 0.00 | 0.00 | 0.00 | 56 | 1010.6 |
| 20260504035601 | 1 | 299 | 0.0 | 1.6 | 0.00 | 0.00 | 0.00 | 58 | 1010.6 |
| 20260504035100 | 1 | 294 | 0.0 | 3.2 | 0.00 | 0.00 | 0.00 | 57 | 1010.6 |
| 20260504034603 | 1 | 294 | 1.6 | 3.2 | 0.00 | 0.00 | 0.00 | 58 | 1010.6 |
| 20260504034059 | 1 | 293 | 1.6 | 3.2 | 0.00 | 0.00 | 0.00 | 59 | 1010.6 |
| 20260504033558 | 1 | 293 | 1.6 | 3.2 | 0.00 | 0.00 | 0.00 | 60 | 1010.5 |
| 20260504033057 | 1 | 293 | 1.6 | 1.6 | 0.00 | 0.00 | 0.00 | 60 | 1010.5 |
| 20260504032556 | 1 | 293 | 1.6 | 1.6 | 0.00 | 0.00 | 0.00 | 60 | 1010.4 |
| 20260504032055 | 1 | 293 | 0.0 | 0.0 | 0.00 | 0.00 | 0.00 | 59 | 1010.5 |
| 20260504031601 | 2 | 293 | 0.0 | 1.6 | 0.00 | 0.00 | 0.00 | 58 | 1010.3 |
| 20260504031052 | 2 | 290 | 1.6 | 3.2 | 0.00 | 0.00 | 0.00 | 57 | 1010.3 |
| 20260504030551 | 2 | 290 | 1.6 | 3.2 | 0.00 | 0.00 | 0.00 | 57 | 1010.4 |
| 20260504030049 | 2 | 278 | 3.2 | 3.2 | 0.00 | 0.00 | 0.00 | 57 | 1010.3 |
| 20260504025554 | 2 | 278 | 1.6 | 3.2 | 0.00 | 0.00 | 0.00 | 58 | 1010.2 |
| 20260504025050 | 2 | 278 | 1.6 | 3.2 | 0.00 | 0.00 | 0.00 | 58 | 1010.3 |
| 20260504024549 | 2 | 278 | 1.6 | 3.2 | 0.00 | 0.00 | 0.00 | 58 | 1010.2 |
| 20260504024045 | 2 | 273 | 1.6 | 3.2 | 0.00 | 0.00 | 0.00 | 57 | 1010.2 |
| 20260504023543 | 2 | 273 | 1.6 | 3.2 | 0.00 | 0.00 | 0.00 | 56 | 1010.1 |
| 20260504023042 | 2 | 273 | 1.6 | 3.2 | 0.00 | 0.00 | 0.00 | 54 | 1010.1 |
| 20260504022542 | 3 | 273 | 1.6 | 3.2 | 0.00 | 0.00 | 0.00 | 53 | 1010.1 |
| 20260504022041 | 3 | 273 | 0.0 | 3.2 | 0.00 | 0.00 | 0.00 | 53 | 1010.0 |
| 20260504021540 | 3 | 273 | 1.6 | 3.2 | 0.00 | 0.00 | 0.00 | 54 | 1010.1 |
| 20260504021040 | 3 | 250 | 1.6 | 3.2 | 0.00 | 0.00 | 0.00 | 55 | 1010.1 |
| 20260504020538 | 3 | 250 | 0.0 | 3.2 | 0.00 | 0.00 | 0.00 | 53 | 1010.1 |
| 20260504020038 | 3 | 293 | 1.6 | 3.2 | 0.00 | 0.00 | 0.00 | 52 | 1010.0 |
| 20260504015538 | 3 | 293 | 1.6 | 3.2 | 0.00 | 0.00 | 0.00 | 50 | 1010.0 |
| 20260504015037 | 4 | 293 | 1.6 | 3.2 | 0.00 | 0.00 | 0.00 | 48 | 1010.0 |
| 20260504014540 | 4 | 293 | 1.6 | 3.2 | 0.00 | 0.00 | 0.00 | 47 | 1009.9 |
| 20260504014035 | 5 | 293 | 1.6 | 3.2 | 0.00 | 0.00 | 0.00 | 47 | 1009.8 |
| 20260504013535 | 5 | 293 | 1.6 | 3.2 | 0.00 | 0.00 | 0.00 | 47 | 1009.9 |
| 20260504013040 | 5 | 293 | 1.6 | 3.2 | 0.00 | 0.00 | 0.00 | 46 | 1009.9 |
| 20260504012533 | 5 | 293 | 1.6 | 3.2 | 0.00 | 0.00 | 0.00 | 45 | 1009.8 |
| 20260504012033 | 5 | 288 | 1.6 | 3.2 | 0.00 | 0.00 | 0.00 | 44 | 1009.8 |
| 20260504011537 | 5 | 288 | 1.6 | 3.2 | 0.00 | 0.00 | 0.00 | 43 | 1009.7 |
| 20260504011031 | 6 | 288 | 1.6 | 3.2 | 0.00 | 0.00 | 0.00 | 42 | 1009.7 |
| 20260504010532 | 6 | 288 | 1.6 | 3.2 | 0.00 | 0.00 | 0.00 | 42 | 1009.6 |
| 20260504010030 | 6 | 288 | 0.0 | 3.2 | 0.00 | 0.00 | 0.00 | 41 | 1009.5 |
| 20260504005530 | 6 | 288 | 0.0 | 0.0 | 0.00 | 0.00 | 0.00 | 40 | 1009.4 |
| 20260504005029 | 6 | 288 | 0.0 | 0.0 | 0.00 | 0.00 | 0.00 | 40 | 1009.4 |
| 20260504004530 | 6 | 288 | 0.0 | 0.0 | 0.00 | 0.00 | 0.00 | 40 | 1009.3 |
| 20260504004028 | 6 | 288 | 0.0 | 0.0 | 0.00 | 0.00 | 0.00 | 40 | 1009.3 |
| 20260504003527 | 7 | 288 | 0.0 | 0.0 | 0.00 | 0.00 | 0.00 | 38 | 1009.3 |
| 20260504003031 | 7 | 288 | 0.0 | 0.0 | 0.00 | 0.00 | 0.00 | 37 | 1009.1 |
| 20260504002526 | 7 | 288 | 0.0 | 0.0 | 0.00 | 0.00 | 0.00 | 36 | 1009.1 |
| 20260504002026 | 7 | 288 | 0.0 | 0.0 | 0.00 | 0.00 | 0.00 | 36 | 1009.0 |
| 20260504001526 | 7 | 288 | 0.0 | 0.0 | 0.00 | 0.00 | 0.00 | 35 | 1008.9 |
| 20260504001025 | 7 | 288 | 0.0 | 1.6 | 0.00 | 0.00 | 0.00 | 35 | 1008.9 |
| 20260504000524 | 7 | 288 | 0.0 | 1.6 | 0.00 | 0.00 | 0.00 | 34 | 1008.9 |
| 20260504000023 | 8 | 288 | 0.0 | 3.2 | 0.00 | 0.00 | 0.00 | 34 | 1008.8 |
| 20260503235522 | 8 | 288 | 0.0 | 3.2 | 0.00 | 0.00 | 0.00 | 34 | 1008.8 |
| 20260503235021 | 8 | 288 | 1.6 | 4.8 | 0.00 | 0.00 | 0.00 | 33 | 1008.7 |
| 20260503234524 | 8 | 307 | 0.0 | 9.7 | 0.00 | 0.00 | 0.00 | 34 | 1008.8 |
| 20260503234021 | 8 | 305 | 1.6 | 14.5 | 0.00 | 0.00 | 0.00 | 33 | 1008.7 |
| 20260503233521 | 8 | 297 | 4.8 | 14.5 | 0.00 | 0.00 | 0.00 | 32 | 1008.7 |
| 20260503233031 | 9 | 306 | 3.2 | 12.9 | 0.00 | 0.00 | 0.00 | 32 | 1008.7 |
| 20260503232620 | 9 | 273 | 3.2 | 16.1 | 0.00 | 0.00 | 0.00 | 31 | 1008.6 |
| 20260503232018 | 9 | 279 | 6.4 | 16.1 | 0.00 | 0.00 | 0.00 | 31 | 1008.5 |
| 20260503231517 | 9 | 276 | 3.2 | 14.5 | 0.00 | 0.00 | 0.00 | 31 | 1008.4 |
| 20260503231017 | 9 | 293 | 4.8 | 11.3 | 0.00 | 0.00 | 0.00 | 31 | 1008.4 |
| 20260503230515 | 9 | 243 | 4.8 | 11.3 | 0.00 | 0.00 | 0.00 | 31 | 1008.4 |
| 20260503230015 | 10 | 312 | 1.6 | 11.3 | 0.00 | 0.00 | 0.00 | 31 | 1008.4 |
| 20260503225515 | 10 | 172 | 3.2 | 9.7 | 0.00 | 0.00 | 0.00 | 33 | 1008.3 |
| 20260503225014 | 10 | 278 | 1.6 | 14.5 | 0.00 | 0.00 | 0.00 | 31 | 1008.3 |
| 20260503224514 | 10 | 342 | 3.2 | 8.0 | 0.00 | 0.00 | 0.00 | 32 | 1008.2 |
| 20260503224013 | 10 | 287 | 4.8 | 11.3 | 0.00 | 0.00 | 0.00 | 31 | 1008.2 |
| 20260503223513 | 10 | 291 | 3.2 | 14.5 | 0.00 | 0.00 | 0.00 | 33 | 1008.1 |
| 20260503223012 | 9 | 316 | 3.2 | 14.5 | 0.00 | 0.00 | 0.00 | 32 | 1008.3 |
| 20260503222511 | 9 | 326 | 3.2 | 9.7 | 0.00 | 0.00 | 0.00 | 34 | 1008.1 |
| 20260503222011 | 9 | 257 | 3.2 | 12.9 | 0.00 | 0.00 | 0.00 | 33 | 1008.1 |
| 20260503221517 | 10 | 302 | 3.2 | 16.1 | 0.00 | 0.00 | 0.00 | 33 | 1008.1 |
| 20260503221009 | 10 | 328 | 6.4 | 22.5 | 0.00 | 0.00 | 0.00 | 32 | 1008.0 |
| 20260503220508 | 9 | 319 | 8.0 | 22.5 | 0.00 | 0.00 | 0.00 | 31 | 1008.0 |
| 20260503220007 | 9 | 293 | 8.0 | 17.7 | 0.00 | 0.00 | 0.00 | 32 | 1008.0 |
| 20260503215508 | 10 | 297 | 8.0 | 16.1 | 0.00 | 0.00 | 0.00 | 30 | 1008.1 |
| 20260503215008 | 10 | 334 | 9.7 | 19.3 | 0.00 | 0.00 | 0.00 | 30 | 1008.0 |
| 20260503214508 | 10 | 288 | 6.4 | 19.3 | 0.00 | 0.00 | 0.00 | 30 | 1008.1 |